FW2980 Weather Reports


time (UTC)temp
F
wind
direction
speed
knots
gust
knots
rain 1hr
in
rain 24hr
in
rain mn
in
humidity
%
barometer
mb
20260504174527 71 328 7.8 12.2 0.00 0.00 0.00 22 1005.1
20260504173024 71 24 10.4 19.1 0.00 0.00 0.00 22 1005.0
20260504171521 70 347 10.4 17.4 0.00 0.00 0.00 25 1005.0
20260504081538 49 29 0.0 0.0 0.00 0.00 0.00 53 1005.0
20260504050004 54 24 0.0 0.0 0.00 0.00 0.00 47 1007.2
20260504044501 54 22 0.0 1.7 0.00 0.00 0.00 46 1007.3
20260504043059 55 21 0.0 0.0 0.00 0.00 0.00 44 1007.6
20260504041601 56 21 0.0 0.0 0.00 0.00 0.00 42 1007.8
20260504040055 56 20 0.0 0.0 0.00 0.00 0.00 42 1008.0
20260504034554 57 20 0.0 0.9 0.00 0.00 0.00 41 1008.2
20260504033053 58 19 0.0 0.9 0.00 0.00 0.00 39 1008.3
20260504031552 59 19 0.0 0.9 0.00 0.00 0.00 37 1008.5
20260504030052 60 19 0.0 1.7 0.00 0.00 0.00 35 1008.5
20260504024604 61 19 0.0 1.7 0.00 0.00 0.00 34 1008.6
20260504023051 62 21 0.0 0.0 0.00 0.00 0.00 33 1008.6
20260504021548 63 19 0.0 0.0 0.00 0.00 0.00 30 1008.7
20260504020047 64 18 0.0 0.9 0.00 0.00 0.00 29 1008.8
20260504014547 66 18 0.9 1.7 0.00 0.00 0.00 28 1008.8
20260504013045 69 18 0.0 0.0 0.00 0.00 0.00 24 1008.8
20260504011545 71 284 0.0 0.0 0.00 0.00 0.00 22 1008.9
20260504010042 72 317 0.0 0.9 0.00 0.00 0.00 20 1009.0
20260504004546 72 318 0.9 4.3 0.00 0.00 0.00 20 1009.2
20260504003043 72 360 3.5 7.0 0.00 0.00 0.00 20 1009.4
20260504001541 73 336 3.5 7.8 0.00 0.00 0.00 19 1009.5
20260504000053 73 355 4.3 9.6 0.00 0.00 0.00 18 1009.6
20260503234537 73 300 5.2 10.4 0.00 0.00 0.00 18 1009.8
20260503233031 73 360 6.1 15.6 0.00 0.00 0.00 17 1009.9
20260503231529 74 22 6.1 13.9 0.00 0.00 0.00 17 1010.0
20260503230026 73 360 7.8 13.0 0.00 0.00 0.00 17 1010.1
20260503224525 74 355 8.7 16.5 0.00 0.00 0.00 16 1010.1
20260503223023 74 360 6.1 13.9 0.00 0.00 0.00 18 1010.3
20260503221520 74 355 5.2 12.2 0.00 0.00 0.00 18 1010.3
20260503220017 74 355 4.3 13.0 0.00 0.00 0.00 19 1010.5
20260503214515 74 323 7.0 14.8 0.00 0.00 0.00 18 1010.6
20260503213013 74 317 3.5 13.9 0.00 0.00 0.00 20 1010.7
20260503211512 74 26 6.1 13.9 0.00 0.00 0.00 17 1010.9
20260503210009 73 360 7.0 13.0 0.00 0.00 0.00 18 1011.0
20260503204507 74 22 5.2 13.9 0.00 0.00 0.00 18 1011.1
20260503203015 74 46 5.2 11.3 0.00 0.00 0.00 19 1011.2
20260503201504 74 327 5.2 11.3 0.00 0.00 0.00 18 1011.3
20260503200004 73 360 12.2 17.4 0.00 0.00 0.00 19 1011.7
20260503194502 74 360 7.8 13.9 0.00 0.00 0.00 19 1011.6
20260503193100 73 44 5.2 10.4 0.00 0.00 0.00 19 1011.8
20260503191604 73 310 7.8 12.2 0.00 0.00 0.00 19 1012.0
20260503190056 72 5 6.1 13.0 0.00 0.00 0.00 18 1012.0
20260503184555 72 360 4.3 13.0 0.00 0.00 0.00 20 1012.3
20260503183053 72 329 4.3 15.6 0.00 0.00 0.00 20 1012.3
20260503181601 71 360 10.4 14.8 0.00 0.00 0.00 21 1012.6
20260503180050 71 33 9.6 17.4 0.00 0.00 0.00 22 1012.9